Location: Unspecified
(0.0000°N, 0.0000°E)
Time: 02:47:27
(UTC+00:00)

Courier 1B Rocket - Pass Details

Date: 20 December 2018
Orbit: 920 x 1202 km, 28.2° (Epoch: 18 March)

Event Time Altitude Azimuth Distance (km) Brightness Sun altitude
Rises 14:25:22 0° 307° (NW) 3,891 8.3 47.2°
Reaches altitude 10° 14:28:06 10° 310° (NW) 2,974 7.8 46.6°
Maximum altitude 14:35:26 64° 30° (NNE) 1,269 6.0 45.1°
Drops below altitude 10° 14:43:09 10° 111° (ESE) 3,121 7.5 43.5°
Sets 14:46:03 0° 114° (ESE) 4,095 8.0 42.9°
